| time (UTC) | temp C | wind direction | speed KPH | gust KPH | rain 1hr cm | rain 24hr cm | rain mn cm | humidity % | barometer mb |
| 20260902164946 | 35 | 197 | 4.8 | 9.7 | 0.00 | 0.00 | 0.00 | 43 | 1018.1 |
| 20260902164441 | 35 | 188 | 1.6 | 3.2 | 0.00 | 0.00 | 0.00 | 42 | 1018.3 |
| 20260902163940 | 34 | 229 | 6.4 | 6.4 | 0.00 | 0.00 | 0.00 | 45 | 1018.2 |
| 20260902163436 | 34 | 333 | 6.4 | 6.4 | 0.00 | 0.00 | 0.00 | 44 | 1018.2 |
| 20260902162933 | 34 | 145 | 6.4 | 9.7 | 0.00 | 0.00 | 0.00 | 45 | 1018.3 |
| 20260902162429 | 34 | 253 | 3.2 | 3.2 | 0.00 | 0.00 | 0.00 | 45 | 1018.3 |
| 20260902161928 | 34 | 0 | 6.4 | 9.7 | 0.00 | 0.00 | 0.00 | 46 | 1018.6 |
| 20260902161424 | 34 | 347 | 3.2 | 3.2 | 0.00 | 0.00 | 0.00 | 46 | 1018.5 |
| 20260902160920 | 33 | 234 | 8.0 | 11.3 | 0.00 | 0.00 | 0.00 | 46 | 1018.4 |
| 20260902160415 | 33 | 279 | 9.7 | 12.9 | 0.00 | 0.00 | 0.00 | 48 | 1018.4 |
| 20260902155913 | 32 | 199 | 4.8 | 4.8 | 0.00 | 0.00 | 0.00 | 50 | 1018.4 |
| 20260902155408 | 33 | 204 | 8.0 | 12.9 | 0.00 | 0.00 | 0.00 | 49 | 1018.6 |
| 20260902154902 | 32 | 288 | 4.8 | 6.4 | 0.00 | 0.00 | 0.00 | 50 | 1018.6 |
| 20260902154358 | 32 | 228 | 3.2 | 3.2 | 0.00 | 0.00 | 0.00 | 52 | 1018.6 |
| 20260902153857 | 32 | 166 | 8.0 | 12.9 | 0.00 | 0.00 | 0.00 | 52 | 1018.6 |
| 20260902153356 | 31 | 318 | 1.6 | 3.2 | 0.00 | 0.00 | 0.00 | 54 | 1018.4 |
| 20260902152852 | 32 | 218 | 8.0 | 11.3 | 0.00 | 0.00 | 0.00 | 53 | 1018.8 |
| 20260902152348 | 31 | 161 | 3.2 | 6.4 | 0.00 | 0.00 | 0.00 | 53 | 1018.5 |
| 20260902151843 | 31 | 161 | 4.8 | 4.8 | 0.00 | 0.00 | 0.00 | 54 | 1018.6 |
| 20260902151338 | 31 | 119 | 4.8 | 4.8 | 0.00 | 0.00 | 0.00 | 53 | 1018.4 |
| 20260902150833 | 31 | 34 | 3.2 | 3.2 | 0.00 | 0.00 | 0.00 | 54 | 1018.5 |
| 20260902150329 | 31 | 240 | 6.4 | 6.4 | 0.00 | 0.00 | 0.00 | 54 | 1018.5 |
| 20260902145828 | 31 | 19 | 1.6 | 3.2 | 0.00 | 0.00 | 0.00 | 54 | 1018.6 |
| 20260902145324 | 31 | 43 | 3.2 | 3.2 | 0.00 | 0.00 | 0.00 | 53 | 1018.3 |
| 20260902144819 | 32 | 266 | 9.7 | 14.5 | 0.00 | 0.00 | 0.00 | 52 | 1018.2 |
| 20260902144316 | 31 | 302 | 4.8 | 6.4 | 0.00 | 0.00 | 0.00 | 53 | 1018.4 |
| 20260902143810 | 31 | 167 | 9.7 | 12.9 | 0.00 | 0.00 | 0.00 | 53 | 1018.3 |
| 20260902143305 | 31 | 255 | 8.0 | 11.3 | 0.00 | 0.00 | 0.00 | 52 | 1018.4 |
| 20260902142801 | 31 | 198 | 4.8 | 6.4 | 0.00 | 0.00 | 0.00 | 53 | 1018.3 |
| 20260902142256 | 31 | 222 | 4.8 | 4.8 | 0.00 | 0.00 | 0.00 | 54 | 1018.4 |
| 20260902141756 | 31 | 187 | 4.8 | 6.4 | 0.00 | 0.00 | 0.00 | 53 | 1018.4 |
| 20260902141252 | 30 | 189 | 11.3 | 14.5 | 0.00 | 0.00 | 0.00 | 54 | 1018.2 |
| 20260902140746 | 30 | 164 | 6.4 | 9.7 | 0.00 | 0.00 | 0.00 | 55 | 1018.4 |
| 20260902140241 | 30 | 263 | 4.8 | 4.8 | 0.00 | 0.00 | 0.00 | 56 | 1018.4 |
| 20260902135740 | 30 | 271 | 4.8 | 6.4 | 0.00 | 0.00 | 0.00 | 56 | 1018.6 |
| 20260902135236 | 30 | 195 | 6.4 | 11.3 | 0.00 | 0.00 | 0.00 | 56 | 1018.5 |
| 20260902134736 | 29 | 187 | 4.8 | 4.8 | 0.00 | 0.00 | 0.00 | 56 | 1018.3 |
| 20260902134231 | 28 | 192 | 6.4 | 11.3 | 0.00 | 0.00 | 0.00 | 58 | 1018.2 |
| 20260902133726 | 28 | 199 | 8.0 | 9.7 | 0.00 | 0.00 | 0.00 | 58 | 1018.3 |
| 20260902133225 | 28 | 251 | 6.4 | 6.4 | 0.00 | 0.00 | 0.00 | 58 | 1018.3 |
| 20260902132721 | 28 | 204 | 4.8 | 6.4 | 0.00 | 0.00 | 0.00 | 59 | 1018.3 |
| 20260902132216 | 28 | 213 | 6.4 | 9.7 | 0.00 | 0.00 | 0.00 | 59 | 1018.5 |
| 20260902131712 | 28 | 190 | 6.4 | 11.3 | 0.00 | 0.00 | 0.00 | 60 | 1018.5 |
| 20260902131209 | 28 | 86 | 3.2 | 3.2 | 0.00 | 0.00 | 0.00 | 60 | 1018.3 |
| 20260902130708 | 28 | 226 | 8.0 | 11.3 | 0.00 | 0.00 | 0.00 | 60 | 1018.4 |
| 20260902130204 | 28 | 63 | 4.8 | 6.4 | 0.00 | 0.00 | 0.00 | 61 | 1018.2 |
| 20260902125700 | 28 | 176 | 4.8 | 6.4 | 0.00 | 0.00 | 0.00 | 61 | 1018.4 |
| 20260902125156 | 28 | 69 | 3.2 | 3.2 | 0.00 | 0.00 | 0.00 | 61 | 1018.3 |
| 20260902124652 | 28 | 134 | 6.4 | 6.4 | 0.00 | 0.00 | 0.00 | 61 | 1018.3 |
| 20260902124151 | 27 | 181 | 3.2 | 3.2 | 0.00 | 0.00 | 0.00 | 62 | 1018.1 |
| 20260902123647 | 27 | 121 | 3.2 | 4.8 | 0.00 | 0.00 | 0.00 | 62 | 1018.0 |
| 20260902123142 | 27 | 167 | 4.8 | 6.4 | 0.00 | 0.00 | 0.00 | 63 | 1018.2 |
| 20260902122637 | 27 | 94 | 6.4 | 6.4 | 0.00 | 0.00 | 0.00 | 63 | 1018.0 |
| 20260902122133 | 27 | 62 | 3.2 | 4.8 | 0.00 | 0.00 | 0.00 | 64 | 1018.0 |
| 20260902121632 | 27 | 186 | 6.4 | 11.3 | 0.00 | 0.00 | 0.00 | 64 | 1017.9 |
| 20260902121127 | 27 | 171 | 9.7 | 11.3 | 0.00 | 0.00 | 0.00 | 64 | 1017.6 |
| 20260902120623 | 27 | 181 | 6.4 | 9.7 | 0.00 | 0.00 | 0.00 | 64 | 1017.6 |
| 20260902120120 | 27 | 163 | 6.4 | 6.4 | 0.00 | 0.00 | 0.00 | 64 | 1017.6 |
| 20260902115614 | 27 | 78 | 4.8 | 6.4 | 0.00 | 0.00 | 0.00 | 63 | 1017.6 |
| 20260902115110 | 27 | 108 | 1.6 | 3.2 | 0.00 | 0.00 | 0.00 | 63 | 1017.5 |
| 20260902114606 | 27 | 329 | 6.4 | 9.7 | 0.00 | 0.00 | 0.00 | 63 | 1017.4 |
| 20260902114105 | 27 | 202 | 8.0 | 9.7 | 0.00 | 0.00 | 0.00 | 63 | 1017.3 |
| 20260902113601 | 27 | 112 | 8.0 | 12.9 | 0.00 | 0.00 | 0.00 | 63 | 1017.3 |
| 20260902113056 | 27 | 185 | 9.7 | 11.3 | 0.00 | 0.00 | 0.00 | 63 | 1017.3 |
| 20260902112551 | 27 | 9 | 3.2 | 4.8 | 0.00 | 0.00 | 0.00 | 63 | 1017.3 |
| 20260902112048 | 27 | 178 | 6.4 | 6.4 | 0.00 | 0.00 | 0.00 | 63 | 1017.1 |
| 20260902111544 | 27 | 131 | 6.4 | 9.7 | 0.00 | 0.00 | 0.00 | 63 | 1017.2 |
| 20260902111040 | 27 | 186 | 4.8 | 6.4 | 0.00 | 0.00 | 0.00 | 63 | 1017.2 |
| 20260902110536 | 27 | 208 | 4.8 | 4.8 | 0.00 | 0.00 | 0.00 | 63 | 1017.2 |
| 20260902110031 | 27 | 152 | 3.2 | 3.2 | 0.00 | 0.00 | 0.00 | 63 | 1017.2 |
| 20260902105531 | 27 | 131 | 3.2 | 4.8 | 0.00 | 0.00 | 0.00 | 63 | 1017.2 |
| 20260902105025 | 27 | 38 | 3.2 | 3.2 | 0.00 | 0.00 | 0.00 | 62 | 1017.1 |
| 20260902104521 | 27 | 47 | 1.6 | 3.2 | 0.00 | 0.00 | 0.00 | 62 | 1017.1 |
| 20260902104016 | 27 | 76 | 3.2 | 3.2 | 0.00 | 0.00 | 0.00 | 62 | 1017.1 |
| 20260902103511 | 27 | 169 | 1.6 | 3.2 | 0.00 | 0.00 | 0.00 | 61 | 1017.1 |
| 20260902103007 | 27 | 54 | 1.6 | 3.2 | 0.00 | 0.00 | 0.00 | 61 | 1016.9 |
| 20260902102503 | 27 | 148 | 1.6 | 3.2 | 0.00 | 0.00 | 0.00 | 61 | 1017.2 |
| 20260902102000 | 27 | 109 | 6.4 | 6.4 | 0.00 | 0.00 | 0.00 | 61 | 1017.1 |
| 20260902101459 | 28 | 188 | 4.8 | 6.4 | 0.00 | 0.00 | 0.00 | 61 | 1017.1 |
| 20260902100958 | 28 | 168 | 1.6 | 4.8 | 0.00 | 0.00 | 0.00 | 60 | 1017.1 |
| 20260902100453 | 28 | 266 | 8.0 | 11.3 | 0.00 | 0.00 | 0.00 | 60 | 1017.1 |
| 20260902095953 | 28 | 106 | 1.6 | 3.2 | 0.00 | 0.00 | 0.00 | 60 | 1017.0 |
| 20260902095448 | 28 | 316 | 3.2 | 3.2 | 0.00 | 0.00 | 0.00 | 60 | 1017.1 |
| 20260902094947 | 28 | 28 | 3.2 | 4.8 | 0.00 | 0.00 | 0.00 | 60 | 1016.9 |
| 20260902094444 | 28 | 40 | 1.6 | 3.2 | 0.00 | 0.00 | 0.00 | 60 | 1016.8 |
| 20260902093944 | 28 | 192 | 8.0 | 9.7 | 0.00 | 0.00 | 0.00 | 59 | 1016.9 |
| 20260902093439 | 28 | 35 | 4.8 | 4.8 | 0.00 | 0.00 | 0.00 | 59 | 1016.8 |
| 20260902092938 | 28 | 23 | 1.6 | 3.2 | 0.00 | 0.00 | 0.00 | 59 | 1017.0 |
| 20260902092434 | 28 | 131 | 4.8 | 6.4 | 0.00 | 0.00 | 0.00 | 59 | 1016.6 |
| 20260902091933 | 28 | 176 | 9.7 | 12.9 | 0.00 | 0.00 | 0.00 | 59 | 1017.0 |
| 20260902091429 | 28 | 189 | 4.8 | 4.8 | 0.00 | 0.00 | 0.00 | 58 | 1016.9 |
| 20260902090925 | 28 | 125 | 3.2 | 4.8 | 0.00 | 0.00 | 0.00 | 58 | 1016.7 |
| 20260902090425 | 28 | 126 | 6.4 | 6.4 | 0.00 | 0.00 | 0.00 | 58 | 1016.6 |
| 20260902085924 | 28 | 129 | 4.8 | 6.4 | 0.00 | 0.00 | 0.00 | 58 | 1016.6 |
| 20260902085420 | 28 | 90 | 4.8 | 4.8 | 0.00 | 0.00 | 0.00 | 58 | 1016.7 |
| 20260902084915 | 28 | 113 | 4.8 | 4.8 | 0.00 | 0.00 | 0.00 | 58 | 1016.6 |
| 20260902084411 | 28 | 183 | 8.0 | 11.3 | 0.00 | 0.00 | 0.00 | 58 | 1016.8 |
| 20260902083907 | 28 | 212 | 6.4 | 6.4 | 0.00 | 0.00 | 0.00 | 57 | 1016.7 |
| 20260902083406 | 28 | 50 | 4.8 | 4.8 | 0.00 | 0.00 | 0.00 | 57 | 1016.5 |
| 20260902082901 | 28 | 190 | 8.0 | 11.3 | 0.00 | 0.00 | 0.00 | 57 | 1016.6 |
| 20260902082357 | 28 | 150 | 4.8 | 6.4 | 0.00 | 0.00 | 0.00 | 57 | 1016.7 |
| 20260902081854 | 28 | 216 | 3.2 | 4.8 | 0.00 | 0.00 | 0.00 | 57 | 1016.6 |
| 20260902081349 | 29 | 118 | 6.4 | 12.9 | 0.00 | 0.00 | 0.00 | 56 | 1016.7 |
| 20260902080844 | 29 | 133 | 6.4 | 9.7 | 0.00 | 0.00 | 0.00 | 56 | 1016.6 |
| 20260902080341 | 29 | 187 | 14.5 | 17.7 | 0.00 | 0.00 | 0.00 | 56 | 1016.6 |
| 20260902075840 | 29 | 203 | 8.0 | 11.3 | 0.00 | 0.00 | 0.00 | 56 | 1016.8 |
| 20260902075336 | 29 | 164 | 4.8 | 4.8 | 0.00 | 0.00 | 0.00 | 56 | 1016.7 |
| 20260902074831 | 29 | 107 | 1.6 | 3.2 | 0.00 | 0.00 | 0.00 | 55 | 1016.7 |
| 20260902074327 | 29 | 180 | 6.4 | 11.3 | 0.00 | 0.00 | 0.00 | 55 | 1016.4 |
| 20260902073821 | 29 | 71 | 6.4 | 6.4 | 0.00 | 0.00 | 0.00 | 55 | 1016.7 |
| 20260902073318 | 29 | 206 | 11.3 | 22.5 | 0.00 | 0.00 | 0.00 | 55 | 1016.7 |
| 20260902072814 | 30 | 125 | 8.0 | 9.7 | 0.00 | 0.00 | 0.00 | 54 | 1016.7 |
| 20260902072310 | 30 | 74 | 6.4 | 9.7 | 0.00 | 0.00 | 0.00 | 54 | 1016.4 |
| 20260902071805 | 30 | 211 | 9.7 | 11.3 | 0.00 | 0.00 | 0.00 | 54 | 1016.6 |
| 20260902071300 | 30 | 68 | 8.0 | 11.3 | 0.00 | 0.00 | 0.00 | 54 | 1016.5 |
| 20260902070756 | 30 | 189 | 4.8 | 6.4 | 0.00 | 0.00 | 0.00 | 54 | 1016.6 |
| 20260902070256 | 30 | 183 | 4.8 | 6.4 | 0.00 | 0.00 | 0.00 | 54 | 1016.5 |
| 20260902065755 | 30 | 172 | 8.0 | 11.3 | 0.00 | 0.00 | 0.00 | 53 | 1016.4 |
| 20260902065250 | 30 | 122 | 8.0 | 9.7 | 0.00 | 0.00 | 0.00 | 53 | 1016.7 |
| 20260902064746 | 30 | 39 | 6.4 | 11.3 | 0.00 | 0.00 | 0.00 | 53 | 1016.6 |
| 20260902064242 | 30 | 178 | 6.4 | 6.4 | 0.00 | 0.00 | 0.00 | 53 | 1016.5 |
| 20260902063737 | 30 | 89 | 8.0 | 9.7 | 0.00 | 0.00 | 0.00 | 53 | 1016.7 |
| 20260902063232 | 30 | 319 | 3.2 | 3.2 | 0.00 | 0.00 | 0.00 | 53 | 1016.4 |
| 20260902062731 | 29 | 195 | 8.0 | 9.7 | 0.00 | 0.00 | 0.00 | 54 | 1016.6 |
| 20260902062226 | 29 | 127 | 9.7 | 17.7 | 0.00 | 0.00 | 0.00 | 54 | 1016.7 |
| 20260902061725 | 29 | 147 | 3.2 | 4.8 | 0.00 | 0.00 | 0.00 | 54 | 1016.5 |
| 20260902061221 | 29 | 174 | 6.4 | 6.4 | 0.00 | 0.00 | 0.00 | 54 | 1016.7 |
| 20260902060717 | 29 | 92 | 4.8 | 4.8 | 0.00 | 0.00 | 0.00 | 54 | 1016.5 |
| 20260902060213 | 29 | 300 | 1.6 | 1.6 | 0.00 | 0.00 | 0.00 | 54 | 1016.5 |
| 20260902055709 | 29 | 81 | 6.4 | 9.7 | 0.00 | 0.00 | 0.00 | 53 | 1016.5 |
| 20260902055204 | 29 | 157 | 6.4 | 9.7 | 0.00 | 0.00 | 0.00 | 53 | 1016.5 |
| 20260902054659 | 29 | 118 | 4.8 | 4.8 | 0.00 | 0.00 | 0.00 | 53 | 1016.5 |
| 20260902054155 | 29 | 48 | 1.6 | 3.2 | 0.00 | 0.00 | 0.00 | 53 | 1016.3 |
| 20260902053650 | 29 | 95 | 4.8 | 6.4 | 0.00 | 0.00 | 0.00 | 53 | 1016.5 |
| 20260902053150 | 29 | 137 | 4.8 | 6.4 | 0.00 | 0.00 | 0.00 | 52 | 1016.6 |
| 20260902052649 | 29 | 158 | 3.2 | 3.2 | 0.00 | 0.00 | 0.00 | 52 | 1016.5 |
| 20260902052145 | 29 | 77 | 4.8 | 4.8 | 0.00 | 0.00 | 0.00 | 52 | 1016.6 |
| 20260902051644 | 29 | 348 | 0.0 | 1.6 | 0.00 | 0.00 | 0.00 | 53 | 1016.7 |
| 20260902051139 | 29 | 80 | 1.6 | 1.6 | 0.00 | 0.00 | 0.00 | 52 | 1016.6 |
| 20260902050633 | 29 | 43 | 0.0 | 0.0 | 0.00 | 0.00 | 0.00 | 52 | 1016.7 |
| 20260902050129 | 29 | 8 | 1.6 | 1.6 | 0.00 | 0.00 | 0.00 | 52 | 1016.6 |
| 20260902045624 | 29 | 92 | 1.6 | 3.2 | 0.00 | 0.00 | 0.00 | 52 | 1016.7 |
| 20260902045120 | 29 | 22 | 0.0 | 1.6 | 0.00 | 0.00 | 0.00 | 52 | 1016.6 |
| 20260902044615 | 29 | 10 | 3.2 | 3.2 | 0.00 | 0.00 | 0.00 | 51 | 1016.6 |
| 20260902044111 | 30 | 172 | 1.6 | 1.6 | 0.00 | 0.00 | 0.00 | 51 | 1016.6 |
| 20260902043606 | 30 | 138 | 3.2 | 3.2 | 0.00 | 0.00 | 0.00 | 51 | 1016.6 |
| 20260902043106 | 30 | 143 | 1.6 | 3.2 | 0.00 | 0.00 | 0.00 | 50 | 1016.5 |
| 20260902042600 | 30 | 182 | 4.8 | 4.8 | 0.00 | 0.00 | 0.00 | 50 | 1016.4 |
| 20260902042055 | 30 | 142 | 4.8 | 6.4 | 0.00 | 0.00 | 0.00 | 49 | 1016.4 |
| 20260902041554 | 30 | 196 | 6.4 | 6.4 | 0.00 | 0.00 | 0.00 | 49 | 1016.3 |
| 20260902041049 | 30 | 79 | 6.4 | 9.7 | 0.00 | 0.00 | 0.00 | 49 | 1016.1 |
| 20260902040543 | 30 | 18 | 0.0 | 1.6 | 0.00 | 0.00 | 0.00 | 48 | 1016.4 |
| 20260902040038 | 30 | 142 | 8.0 | 9.7 | 0.00 | 0.00 | 0.00 | 47 | 1016.2 |
| 20260902035531 | 31 | 179 | 6.4 | 6.4 | 0.00 | 0.00 | 0.00 | 47 | 1016.4 |
| 20260902035027 | 31 | 131 | 6.4 | 6.4 | 0.00 | 0.00 | 0.00 | 46 | 1016.3 |
| 20260902034526 | 31 | 45 | 4.8 | 4.8 | 0.00 | 0.00 | 0.00 | 46 | 1016.1 |
| 20260902034025 | 31 | 35 | 1.6 | 3.2 | 0.00 | 0.00 | 0.00 | 45 | 1016.2 |
| 20260902033525 | 31 | 20 | 3.2 | 3.2 | 0.00 | 0.00 | 0.00 | 45 | 1016.3 |
| 20260902033020 | 31 | 45 | 3.2 | 3.2 | 0.00 | 0.00 | 0.00 | 45 | 1016.4 |
| 20260902032513 | 31 | 82 | 4.8 | 6.4 | 0.00 | 0.00 | 0.00 | 45 | 1016.1 |
| 20260902032009 | 31 | 95 | 4.8 | 4.8 | 0.00 | 0.00 | 0.00 | 45 | 1016.0 |
| 20260902031508 | 31 | 57 | 1.6 | 1.6 | 0.00 | 0.00 | 0.00 | 45 | 1016.2 |
| 20260902031005 | 31 | 70 | 4.8 | 6.4 | 0.00 | 0.00 | 0.00 | 45 | 1015.8 |
| 20260902030505 | 31 | 59 | 3.2 | 3.2 | 0.00 | 0.00 | 0.00 | 44 | 1015.8 |
| 20260902030004 | 32 | 36 | 3.2 | 3.2 | 0.00 | 0.00 | 0.00 | 44 | 1015.8 |
| 20260902025459 | 32 | 46 | 1.6 | 1.6 | 0.00 | 0.00 | 0.00 | 44 | 1015.8 |
| 20260902024954 | 32 | 28 | 0.0 | 0.0 | 0.00 | 0.00 | 0.00 | 44 | 1015.8 |
| 20260902024450 | 32 | 311 | 3.2 | 3.2 | 0.00 | 0.00 | 0.00 | 44 | 1015.7 |
| 20260902023949 | 32 | 46 | 0.0 | 0.0 | 0.00 | 0.00 | 0.00 | 44 | 1015.7 |
| 20260902023446 | 32 | 123 | 3.2 | 4.8 | 0.00 | 0.00 | 0.00 | 43 | 1015.7 |
| 20260902022945 | 32 | 22 | 0.0 | 1.6 | 0.00 | 0.00 | 0.00 | 43 | 1015.4 |
| 20260902022440 | 32 | 23 | 0.0 | 0.0 | 0.00 | 0.00 | 0.00 | 43 | 1015.5 |
| 20260902021936 | 32 | 33 | 0.0 | 1.6 | 0.00 | 0.00 | 0.00 | 42 | 1015.3 |
| 20260902021436 | 32 | 22 | 0.0 | 1.6 | 0.00 | 0.00 | 0.00 | 42 | 1015.3 |
| 20260902020932 | 32 | 50 | 1.6 | 3.2 | 0.00 | 0.00 | 0.00 | 41 | 1015.2 |
| 20260902020429 | 32 | 21 | 0.0 | 0.0 | 0.00 | 0.00 | 0.00 | 42 | 1015.3 |
| 20260902015924 | 32 | 92 | 3.2 | 3.2 | 0.00 | 0.00 | 0.00 | 42 | 1015.2 |
| 20260902015420 | 32 | 26 | 0.0 | 1.6 | 0.00 | 0.00 | 0.00 | 42 | 1015.1 |
| 20260902014915 | 32 | 24 | 0.0 | 0.0 | 0.00 | 0.00 | 0.00 | 42 | 1015.1 |
| 20260902014412 | 33 | 20 | 0.0 | 0.0 | 0.00 | 0.00 | 0.00 | 42 | 1015.1 |
| 20260902013910 | 33 | 13 | 0.0 | 0.0 | 0.00 | 0.00 | 0.00 | 41 | 1014.9 |
| 20260902013406 | 33 | 359 | 0.0 | 0.0 | 0.00 | 0.00 | 0.00 | 41 | 1015.0 |
| 20260902012901 | 33 | 8 | 0.0 | 1.6 | 0.00 | 0.00 | 0.00 | 39 | 1014.9 |
| 20260902012357 | 33 | 328 | 0.0 | 1.6 | 0.00 | 0.00 | 0.00 | 39 | 1015.0 |
| 20260902011853 | 33 | 10 | 0.0 | 0.0 | 0.00 | 0.00 | 0.00 | 39 | 1014.9 |
| 20260902011353 | 33 | 57 | 1.6 | 1.6 | 0.00 | 0.00 | 0.00 | 39 | 1014.9 |
| 20260902010852 | 33 | 23 | 0.0 | 1.6 | 0.00 | 0.00 | 0.00 | 38 | 1014.9 |
| 20260902010347 | 34 | 19 | 0.0 | 0.0 | 0.00 | 0.00 | 0.00 | 38 | 1014.7 |
| 20260902005846 | 34 | 13 | 0.0 | 1.6 | 0.00 | 0.00 | 0.00 | 38 | 1014.8 |
| 20260902005340 | 34 | 7 | 0.0 | 0.0 | 0.00 | 0.00 | 0.00 | 38 | 1014.8 |
| 20260902004836 | 35 | 9 | 0.0 | 0.0 | 0.00 | 0.00 | 0.00 | 37 | 1014.8 |
| 20260902004336 | 35 | 42 | 0.0 | 0.0 | 0.00 | 0.00 | 0.00 | 37 | 1014.7 |
| 20260902003831 | 35 | 57 | 0.0 | 1.6 | 0.00 | 0.00 | 0.00 | 37 | 1014.8 |
| 20260902003326 | 35 | 4 | 0.0 | 1.6 | 0.00 | 0.00 | 0.00 | 36 | 1014.9 |
| 20260902002822 | 35 | 2 | 1.6 | 1.6 | 0.00 | 0.00 | 0.00 | 35 | 1014.9 |
| 20260902002321 | 35 | 26 | 1.6 | 1.6 | 0.00 | 0.00 | 0.00 | 35 | 1014.9 |
| 20260902001817 | 36 | 182 | 4.8 | 4.8 | 0.00 | 0.00 | 0.00 | 35 | 1014.8 |
| 20260902001312 | 36 | 54 | 1.6 | 1.6 | 0.00 | 0.00 | 0.00 | 34 | 1014.8 |
| 20260902000812 | 36 | 13 | 3.2 | 3.2 | 0.00 | 0.00 | 0.00 | 34 | 1015.1 |
| 20260902000307 | 36 | 98 | 4.8 | 4.8 | 0.00 | 0.00 | 0.00 | 34 | 1014.9 |
| 20260901235802 | 36 | 6 | 0.0 | 1.6 | 0.00 | 0.00 | 0.00 | 34 | 1014.9 |
| 20260901235256 | 36 | 169 | 6.4 | 6.4 | 0.00 | 0.00 | 0.00 | 34 | 1014.9 |
| 20260901234756 | 37 | 101 | 3.2 | 4.8 | 0.00 | 0.00 | 0.00 | 33 | 1015.1 |
| 20260901234251 | 37 | 236 | 1.6 | 3.2 | 0.00 | 0.00 | 0.00 | 33 | 1015.0 |
| 20260901233746 | 37 | 228 | 6.4 | 6.4 | 0.00 | 0.00 | 0.00 | 33 | 1015.1 |
| 20260901233242 | 37 | 356 | 1.6 | 1.6 | 0.00 | 0.00 | 0.00 | 33 | 1015.2 |
| 20260901232742 | 37 | 196 | 4.8 | 6.4 | 0.00 | 0.00 | 0.00 | 33 | 1015.2 |
| 20260901232237 | 37 | 266 | 4.8 | 4.8 | 0.00 | 0.00 | 0.00 | 33 | 1015.2 |
| 20260901231734 | 37 | 307 | 3.2 | 3.2 | 0.00 | 0.00 | 0.00 | 33 | 1015.3 |
| 20260901231230 | 37 | 193 | 6.4 | 9.7 | 0.00 | 0.00 | 0.00 | 33 | 1015.1 |
| 20260901230726 | 37 | 224 | 3.2 | 9.7 | 0.00 | 0.00 | 0.00 | 33 | 1015.4 |
| 20260901230225 | 37 | 290 | 3.2 | 3.2 | 0.00 | 0.00 | 0.00 | 32 | 1015.2 |
| 20260901225720 | 37 | 194 | 9.7 | 11.3 | 0.00 | 0.00 | 0.00 | 31 | 1015.2 |
| 20260901225214 | 37 | 122 | 9.7 | 12.9 | 0.00 | 0.00 | 0.00 | 32 | 1015.3 |
| 20260901224711 | 37 | 9 | 0.0 | 1.6 | 0.00 | 0.00 | 0.00 | 33 | 1015.4 |
| 20260901224206 | 36 | 33 | 1.6 | 3.2 | 0.00 | 0.00 | 0.00 | 33 | 1015.4 |
| 20260901223702 | 36 | 160 | 4.8 | 4.8 | 0.00 | 0.00 | 0.00 | 34 | 1015.4 |
| 20260901223157 | 37 | 214 | 3.2 | 6.4 | 0.00 | 0.00 | 0.00 | 33 | 1015.4 |
| 20260901222653 | 37 | 162 | 6.4 | 6.4 | 0.00 | 0.00 | 0.00 | 32 | 1015.3 |
| 20260901222149 | 37 | 196 | 3.2 | 4.8 | 0.00 | 0.00 | 0.00 | 33 | 1015.4 |
| 20260901221645 | 37 | 84 | 6.4 | 9.7 | 0.00 | 0.00 | 0.00 | 32 | 1015.3 |
| 20260901221141 | 37 | 92 | 3.2 | 3.2 | 0.00 | 0.00 | 0.00 | 33 | 1015.2 |
| 20260901220639 | 37 | 189 | 6.4 | 9.7 | 0.00 | 0.00 | 0.00 | 32 | 1015.4 |
| 20260901220139 | 37 | 104 | 3.2 | 6.4 | 0.00 | 0.00 | 0.00 | 32 | 1015.2 |
| 20260901215637 | 38 | 346 | 3.2 | 4.8 | 0.00 | 0.00 | 0.00 | 31 | 1015.4 |
| 20260901215132 | 37 | 84 | 3.2 | 6.4 | 0.00 | 0.00 | 0.00 | 31 | 1015.5 |
| 20260901214630 | 37 | 109 | 3.2 | 4.8 | 0.00 | 0.00 | 0.00 | 32 | 1015.4 |
| 20260901214125 | 37 | 115 | 4.8 | 4.8 | 0.00 | 0.00 | 0.00 | 32 | 1015.3 |
| 20260901213624 | 38 | 101 | 9.7 | 14.5 | 0.00 | 0.00 | 0.00 | 31 | 1015.3 |
| 20260901213119 | 37 | 79 | 3.2 | 3.2 | 0.00 | 0.00 | 0.00 | 32 | 1015.3 |
| 20260901212619 | 37 | 99 | 8.0 | 11.3 | 0.00 | 0.00 | 0.00 | 32 | 1015.3 |
| 20260901212115 | 37 | 109 | 3.2 | 4.8 | 0.00 | 0.00 | 0.00 | 33 | 1015.4 |
| 20260901211610 | 37 | 96 | 4.8 | 4.8 | 0.00 | 0.00 | 0.00 | 33 | 1015.5 |
| 20260901211107 | 37 | 155 | 6.4 | 6.4 | 0.00 | 0.00 | 0.00 | 32 | 1015.5 |
| 20260901210601 | 38 | 136 | 4.8 | 6.4 | 0.00 | 0.00 | 0.00 | 32 | 1015.5 |
| 20260901210058 | 38 | 189 | 4.8 | 6.4 | 0.00 | 0.00 | 0.00 | 30 | 1015.9 |
| 20260901205554 | 38 | 337 | 4.8 | 4.8 | 0.00 | 0.00 | 0.00 | 31 | 1015.9 |
| 20260901205053 | 38 | 196 | 6.4 | 6.4 | 0.00 | 0.00 | 0.00 | 31 | 1015.8 |
| 20260901204549 | 38 | 199 | 9.7 | 12.9 | 0.00 | 0.00 | 0.00 | 31 | 1015.9 |
| 20260901204044 | 38 | 272 | 8.0 | 12.9 | 0.00 | 0.00 | 0.00 | 31 | 1015.9 |
| 20260901203544 | 38 | 202 | 11.3 | 12.9 | 0.00 | 0.00 | 0.00 | 31 | 1015.9 |
| 20260901203039 | 38 | 96 | 1.6 | 3.2 | 0.00 | 0.00 | 0.00 | 32 | 1016.1 |
| 20260901202534 | 38 | 155 | 8.0 | 11.3 | 0.00 | 0.00 | 0.00 | 31 | 1016.2 |
| 20260901202030 | 37 | 280 | 4.8 | 4.8 | 0.00 | 0.00 | 0.00 | 32 | 1016.3 |
| 20260901201525 | 37 | 13 | 0.0 | 1.6 | 0.00 | 0.00 | 0.00 | 33 | 1016.2 |
| 20260901201020 | 37 | 50 | 8.0 | 12.9 | 0.00 | 0.00 | 0.00 | 33 | 1016.3 |
| 20260901200519 | 37 | 63 | 3.2 | 3.2 | 0.00 | 0.00 | 0.00 | 33 | 1016.3 |
| 20260901200019 | 38 | 351 | 3.2 | 4.8 | 0.00 | 0.00 | 0.00 | 32 | 1016.2 |
| 20260901195517 | 37 | 275 | 3.2 | 3.2 | 0.00 | 0.00 | 0.00 | 33 | 1016.4 |
| 20260901195017 | 38 | 39 | 1.6 | 3.2 | 0.00 | 0.00 | 0.00 | 33 | 1016.6 |
| 20260901194512 | 37 | 337 | 3.2 | 3.2 | 0.00 | 0.00 | 0.00 | 33 | 1016.4 |
| 20260901194008 | 37 | 219 | 8.0 | 9.7 | 0.00 | 0.00 | 0.00 | 33 | 1016.7 |
| 20260901193507 | 37 | 185 | 3.2 | 4.8 | 0.00 | 0.00 | 0.00 | 34 | 1016.8 |
| 20260901193002 | 37 | 162 | 8.0 | 9.7 | 0.00 | 0.00 | 0.00 | 33 | 1016.7 |
| 20260901192457 | 37 | 3 | 3.2 | 3.2 | 0.00 | 0.00 | 0.00 | 34 | 1016.9 |
| 20260901191954 | 37 | 24 | 1.6 | 1.6 | 0.00 | 0.00 | 0.00 | 34 | 1017.0 |
| 20260901191449 | 37 | 222 | 3.2 | 3.2 | 0.00 | 0.00 | 0.00 | 34 | 1017.0 |
| 20260901190945 | 37 | 304 | 4.8 | 4.8 | 0.00 | 0.00 | 0.00 | 34 | 1017.0 |
| 20260901190440 | 37 | 230 | 11.3 | 14.5 | 0.00 | 0.00 | 0.00 | 33 | 1016.9 |
| 20260901185937 | 36 | 31 | 0.0 | 0.0 | 0.00 | 0.00 | 0.00 | 35 | 1017.0 |
| 20260901185437 | 37 | 99 | 6.4 | 6.4 | 0.00 | 0.00 | 0.00 | 35 | 1017.4 |
| 20260901184937 | 37 | 177 | 3.2 | 3.2 | 0.00 | 0.00 | 0.00 | 35 | 1017.2 |
| 20260901184432 | 37 | 219 | 8.0 | 11.3 | 0.00 | 0.00 | 0.00 | 34 | 1017.2 |
| 20260901183927 | 37 | 358 | 3.2 | 4.8 | 0.00 | 0.00 | 0.00 | 35 | 1017.4 |
| 20260901183427 | 36 | 289 | 6.4 | 9.7 | 0.00 | 0.00 | 0.00 | 35 | 1017.4 |
| 20260901182923 | 36 | 9 | 0.0 | 1.6 | 0.00 | 0.00 | 0.00 | 36 | 1017.6 |
| 20260901182418 | 36 | 8 | 1.6 | 1.6 | 0.00 | 0.00 | 0.00 | 35 | 1017.6 |
| 20260901181913 | 37 | 343 | 3.2 | 4.8 | 0.00 | 0.00 | 0.00 | 35 | 1017.9 |
| 20260901181409 | 36 | 79 | 6.4 | 9.7 | 0.00 | 0.00 | 0.00 | 36 | 1017.6 |
| 20260901180907 | 36 | 354 | 3.2 | 3.2 | 0.00 | 0.00 | 0.00 | 36 | 1017.9 |
| 20260901180406 | 37 | 277 | 6.4 | 6.4 | 0.00 | 0.00 | 0.00 | 36 | 1017.8 |
| 20260901175905 | 36 | 329 | 1.6 | 3.2 | 0.00 | 0.00 | 0.00 | 37 | 1017.9 |
| 20260901175359 | 36 | 236 | 1.6 | 4.8 | 0.00 | 0.00 | 0.00 | 37 | 1018.1 |
| 20260901174855 | 36 | 280 | 1.6 | 3.2 | 0.00 | 0.00 | 0.00 | 38 | 1018.3 |
| 20260901174351 | 36 | 232 | 1.6 | 3.2 | 0.00 | 0.00 | 0.00 | 38 | 1018.5 |
| 20260901173846 | 36 | 260 | 11.3 | 16.1 | 0.00 | 0.00 | 0.00 | 38 | 1018.2 |
| 20260901173341 | 36 | 162 | 9.7 | 12.9 | 0.00 | 0.00 | 0.00 | 39 | 1018.4 |
| 20260901172837 | 36 | 308 | 3.2 | 4.8 | 0.00 | 0.00 | 0.00 | 40 | 1018.6 |
| 20260901172336 | 35 | 197 | 9.7 | 11.3 | 0.00 | 0.00 | 0.00 | 39 | 1018.5 |
| 20260901171835 | 35 | 150 | 4.8 | 9.7 | 0.00 | 0.00 | 0.00 | 41 | 1018.7 |
| 20260901171334 | 36 | 218 | 9.7 | 12.9 | 0.00 | 0.00 | 0.00 | 41 | 1018.8 |
| 20260901170833 | 36 | 5 | 1.6 | 3.2 | 0.00 | 0.00 | 0.00 | 41 | 1018.9 |
| 20260901170328 | 36 | 207 | 4.8 | 9.7 | 0.00 | 0.00 | 0.00 | 41 | 1018.8 |
| 20260901165827 | 36 | 338 | 3.2 | 3.2 | 0.00 | 0.00 | 0.00 | 40 | 1019.0 |
| 20260901165321 | 35 | 25 | 4.8 | 6.4 | 0.00 | 0.00 | 0.00 | 42 | 1019.0 |